TimeMST,TemperatureF,Dew PointF,Humidity,Sea Level PressureIn,VisibilityMPH,Wind Direction,Wind SpeedMPH,Gust SpeedMPH,PrecipitationIn,Events,Conditions,WindDirDegrees,DateUTC
12:15 AM,32.0,32.0,100,29.73,7.0,Calm,Calm,-,N/A,Snow,Light Snow,0,2012-12-15 07:15:00
12:35 AM,33.8,32.0,93,29.73,10.0,Calm,Calm,-,N/A,,Overcast,0,2012-12-15 07:35:00
12:55 AM,33.8,32.0,93,29.73,10.0,SW,6.9,-,N/A,,Overcast,230,2012-12-15 07:55:00
1:15 AM,33.8,32.0,93,29.73,10.0,South,4.6,-,N/A,,Overcast,170,2012-12-15 08:15:00
1:35 AM,33.8,32.0,93,29.73,10.0,WSW,8.1,-,N/A,,Overcast,240,2012-12-15 08:35:00
1:55 AM,33.8,32.0,93,29.74,10.0,SW,9.2,-,N/A,Snow,Light Snow,230,2012-12-15 08:55:00
2:15 AM,33.8,32.0,93,29.74,4.0,WSW,13.8,-,N/A,Snow,Light Snow,240,2012-12-15 09:15:00
2:35 AM,32.0,32.0,100,29.75,1.5,SW,5.8,-,N/A,Snow,Light Snow,230,2012-12-15 09:35:00
2:55 AM,32.0,32.0,100,29.76,2.0,SW,10.4,-,N/A,Snow,Light Snow,220,2012-12-15 09:55:00
3:15 AM,32.0,30.2,93,29.76,1.5,SSW,10.4,-,N/A,Snow,Light Snow,210,2012-12-15 10:15:00
3:35 AM,32.0,30.2,93,29.76,5.0,SSW,6.9,-,N/A,Snow,Light Snow,200,2012-12-15 10:35:00
3:55 AM,32.0,26.6,80,29.76,10.0,SW,23.0,-,N/A,Snow,Light Snow,230,2012-12-15 10:55:00
4:15 AM,32.0,28.4,87,29.77,10.0,SSW,9.2,-,N/A,,Overcast,210,2012-12-15 11:15:00
4:35 AM,32.0,26.6,80,29.77,4.0,SSW,16.1,27.6,N/A,Snow,Light Snow,200,2012-12-15 11:35:00
4:55 AM,32.0,26.6,80,29.78,7.0,South,6.9,-,N/A,Snow,Light Snow,190,2012-12-15 11:55:00
5:15 AM,32.0,26.6,80,29.78,5.0,South,4.6,17.3,N/A,Snow,Light Snow,170,2012-12-15 12:15:00
5:35 AM,30.2,26.6,86,29.78,7.0,SW,4.6,-,N/A,Snow,Light Snow,230,2012-12-15 12:35:00
5:55 AM,30.2,26.6,86,29.78,10.0,Calm,Calm,-,N/A,,Overcast,0,2012-12-15 12:55:00
6:15 AM,30.2,26.6,86,29.78,10.0,WSW,5.8,-,N/A,,Overcast,240,2012-12-15 13:15:00
6:35 AM,30.2,28.4,93,29.78,10.0,SW,5.8,-,N/A,,Overcast,220,2012-12-15 13:35:00
6:55 AM,30.2,26.6,86,29.78,10.0,South,4.6,-,N/A,,Overcast,170,2012-12-15 13:55:00
7:15 AM,30.2,26.6,86,29.79,10.0,ESE,5.8,-,N/A,,Overcast,120,2012-12-15 14:15:00
7:35 AM,30.2,26.6,86,29.79,10.0,ENE,4.6,-,N/A,,Overcast,70,2012-12-15 14:35:00
7:55 AM,30.2,28.4,93,29.80,5.0,Calm,Calm,-,N/A,Snow,Light Snow,0,2012-12-15 14:55:00
8:15 AM,30.2,28.4,93,29.80,2.5,Calm,Calm,-,N/A,Snow,Light Snow,0,2012-12-15 15:15:00
8:35 AM,30.2,28.4,93,29.80,3.0,Calm,Calm,-,N/A,Snow,Light Snow,0,2012-12-15 15:35:00
8:55 AM,30.2,28.4,93,29.80,3.0,Calm,Calm,-,N/A,Snow,Light Snow,0,2012-12-15 15:55:00
9:15 AM,30.2,28.4,93,29.80,4.0,Calm,Calm,-,N/A,Snow,Light Snow,0,2012-12-15 16:15:00
9:35 AM,32.0,28.4,87,29.80,3.0,Calm,Calm,-,N/A,Snow,Light Snow,0,2012-12-15 16:35:00
9:55 AM,32.0,28.4,87,29.80,4.0,Calm,Calm,-,N/A,Snow,Light Snow,0,2012-12-15 16:55:00
10:15 AM,32.0,28.4,87,29.81,3.0,Calm,Calm,-,N/A,Snow,Light Snow,0,2012-12-15 17:15:00
10:35 AM,32.0,28.4,87,29.81,5.0,Calm,Calm,-,N/A,Snow,Light Snow,0,2012-12-15 17:35:00
10:55 AM,32.0,28.4,87,29.81,7.0,Calm,Calm,-,N/A,,Overcast,0,2012-12-15 17:55:00
11:15 AM,32.0,28.4,87,29.80,5.0,Calm,Calm,-,N/A,Snow,Light Snow,0,2012-12-15 18:15:00
11:55 AM,33.8,30.2,87,29.79,7.0,Calm,Calm,-,N/A,,Mostly Cloudy,0,2012-12-15 18:55:00
12:15 PM,33.8,30.2,87,29.78,10.0,Calm,Calm,-,N/A,,Mostly Cloudy,0,2012-12-15 19:15:00
12:35 PM,33.8,28.4,81,29.77,10.0,Calm,Calm,-,N/A,,Overcast,0,2012-12-15 19:35:00
12:55 PM,33.8,28.4,81,29.77,10.0,Calm,Calm,-,N/A,,Overcast,0,2012-12-15 19:55:00
1:15 PM,33.8,28.4,81,29.77,10.0,WSW,3.5,-,N/A,,Overcast,240,2012-12-15 20:15:00
1:35 PM,35.6,28.4,75,29.77,10.0,SW,8.1,-,N/A,,Mostly Cloudy,230,2012-12-15 20:35:00
1:55 PM,35.6,28.4,75,29.76,10.0,SW,12.7,-,N/A,,Mostly Cloudy,220,2012-12-15 20:55:00
2:15 PM,33.8,28.4,81,29.76,10.0,SSW,9.2,-,N/A,,Overcast,210,2012-12-15 21:15:00
2:35 PM,33.8,26.6,75,29.76,10.0,SW,10.4,-,N/A,,Overcast,230,2012-12-15 21:35:00
2:55 PM,33.8,28.4,81,29.76,10.0,WSW,10.4,-,N/A,,Overcast,250,2012-12-15 21:55:00
3:15 PM,33.8,26.6,75,29.76,10.0,SW,11.5,-,N/A,,Mostly Cloudy,230,2012-12-15 22:15:00
3:35 PM,33.8,26.6,75,29.76,10.0,SW,11.5,-,N/A,,Overcast,220,2012-12-15 22:35:00
3:55 PM,32.0,26.6,80,29.76,10.0,SW,5.8,-,N/A,,Overcast,220,2012-12-15 22:55:00
4:15 PM,32.0,26.6,80,29.76,10.0,SW,10.4,-,N/A,,Overcast,230,2012-12-15 23:15:00
4:55 PM,32.0,26.6,80,29.77,10.0,SSW,6.9,-,N/A,,Overcast,200,2012-12-15 23:55:00
5:15 PM,32.0,26.6,80,29.76,10.0,SW,5.8,-,N/A,,Overcast,220,2012-12-16 00:15:00
5:35 PM,32.0,26.6,80,29.76,10.0,SSW,8.1,-,N/A,,Overcast,210,2012-12-16 00:35:00
5:55 PM,32.0,26.6,80,29.76,10.0,SW,9.2,-,N/A,,Overcast,230,2012-12-16 00:55:00
6:15 PM,32.0,26.6,80,29.77,10.0,SW,8.1,-,N/A,,Overcast,220,2012-12-16 01:15:00
6:55 PM,30.2,24.8,80,29.77,10.0,South,4.6,-,N/A,,Overcast,190,2012-12-16 01:55:00
7:15 PM,32.0,24.8,75,29.77,10.0,SSW,6.9,-,N/A,,Overcast,210,2012-12-16 02:15:00
7:35 PM,32.0,26.6,80,29.77,10.0,SW,11.5,-,N/A,,Overcast,220,2012-12-16 02:35:00
7:55 PM,32.0,24.8,75,29.77,10.0,SW,8.1,-,N/A,,Overcast,220,2012-12-16 02:55:00
8:15 PM,32.0,24.8,75,29.78,10.0,SW,6.9,-,N/A,,Overcast,220,2012-12-16 03:15:00
8:35 PM,32.0,26.6,80,29.78,7.0,SW,10.4,-,N/A,Snow,Light Snow,220,2012-12-16 03:35:00
8:55 PM,30.2,26.6,86,29.78,7.0,SSW,6.9,-,N/A,Snow,Light Snow,210,2012-12-16 03:55:00
9:15 PM,30.2,26.6,86,29.78,10.0,SW,8.1,-,N/A,Snow,Light Snow,220,2012-12-16 04:15:00
9:35 PM,30.2,26.6,86,29.78,7.0,SSW,6.9,-,N/A,Snow,Light Snow,210,2012-12-16 04:35:00
9:55 PM,30.2,26.6,86,29.79,4.0,SW,8.1,-,N/A,Snow,Light Snow,220,2012-12-16 04:55:00
10:15 PM,30.2,26.6,86,29.78,5.0,SW,6.9,-,N/A,Snow,Light Snow,220,2012-12-16 05:15:00
10:35 PM,30.2,26.6,86,29.79,10.0,SW,10.4,-,N/A,Snow,Light Snow,230,2012-12-16 05:35:00
10:55 PM,30.2,24.8,80,29.79,10.0,SSW,9.2,-,N/A,Snow,Light Snow,210,2012-12-16 05:55:00
11:15 PM,30.2,24.8,80,29.79,10.0,SSW,8.1,-,N/A,Snow,Light Snow,200,2012-12-16 06:15:00
11:35 PM,30.2,23.0,75,29.79,10.0,SSW,6.9,-,N/A,Snow,Light Snow,200,2012-12-16 06:35:00
11:55 PM,30.2,23.0,75,29.79,10.0,SSW,8.1,-,N/A,,Overcast,210,2012-12-16 06:55:00